Location: Peebles
(55.6412°N, 3.1714°W)
Time: 11:32:14
(UTC+00:00)

RS-15 - Pass Details

Date: 01 December 2023
Orbit: 1893 x 2151 km, 64.8° (Epoch: 02 March)

Event Time Altitude Azimuth Distance (km) Brightness Sun altitude
Exits shadow 00:41:02 35° 46° (NE) 2,913 9.0 -55.3°
Drops below altitude 10° 00:46:53 10° 61° (ENE) 4,413 10.1 -55.0°
Sets 00:50:14 0° 65° (ENE) 5,383 10.7 -54.9°
